Weather History for KFNL - December, 2012

Change the Weather History Date:

Monday, December 24, 2012

  Actual Average Record
Temperature  
Mean Temperature 26 °F -  
Max Temperature 35 °F 40 °F 57 °F (1999)
Min Temperature 15 °F 16 °F -9 °F (1998)
Degree Days  
Heating Degree Days 39    
Moisture  
Dew Point 16 °F    
Average Humidity 70    
Maximum Humidity 93    
Minimum Humidity 44    
Precipitation  
Precipitation 0.00 in - - ()
Sea Level Pressure  
Sea Level Pressure 29.82 in    
Wind  
Wind Speed 8 mph (NNE)    
Max Wind Speed 18 mph    
Max Gust Speed -    
Visibility 8 miles    
Events      
Averages and records for this station are not official NWS values.
T = Trace of Precipitation, MM = Missing Value Source: NWS Daily Summary

Daily Weather History Graph

Daily Weather History Graph

Search for Another Location

Airport or City:

Trip Planner

Search our weather history database for the weather conditions in past years. The results will help you decide how hot, cold, wet, or windy it might be!

Date:

Astronomy

Dec. 24, 2012 Rise Set
Actual Time 7:21 AM MST 4:38 PM MST
Civil Twilight 6:50 AM MST 5:09 PM MST
Nautical Twilight 6:16 AM MST 5:43 PM MST
Astronomical Twilight 5:42 AM MST 6:17 PM MST
Moon 2:07 PM MST (12/24) 4:01 AM MST (12/24)
Length of Visible Light 10h 18m
Length of Day
9h 17m
Waxing Gibbous, 89% of the Moon is Illuminated
Dec 24
Waxing Gibbous
Dec 28
Full
Jan 4
Last Quarter
Jan 11
New
Jan 18
First Quarter

Hourly Weather History & Observations

Time (MST) Temp. Windchill Dew Point Humidity Pressure Visibility Wind Dir Wind Speed Gust Speed Precip Events Conditions
12:15 AM 28.4 °F 22.2 °F 15.8 °F 59% 29.92 in 10.0 mi SSE 5.8 mph - N/A   Clear
12:35 AM 24.8 °F 19.1 °F 12.2 °F 59% 29.92 in 10.0 mi North 4.6 mph - N/A   Clear
12:55 AM 23.0 °F 15.8 °F 12.2 °F 63% 29.91 in 10.0 mi North 5.8 mph - N/A   Clear
1:15 AM 23.0 °F 14.7 °F 15.8 °F 74% 29.90 in 10.0 mi NE 6.9 mph - N/A   Clear
1:35 AM 21.2 °F 13.6 °F 12.2 °F 68% 29.90 in 10.0 mi NNE 5.8 mph - N/A   Clear
1:55 AM 21.2 °F 11.7 °F 15.8 °F 80% 29.90 in 10.0 mi North 8.1 mph - N/A   Clear
2:15 AM 23.0 °F 14.7 °F 12.2 °F 63% 29.89 in 10.0 mi North 6.9 mph - N/A   Clear
2:35 AM 24.8 °F 16.9 °F 14.0 °F 64% 29.89 in 10.0 mi North 6.9 mph - N/A   Clear
2:55 AM 21.2 °F 13.6 °F 12.2 °F 68% 29.87 in 10.0 mi North 5.8 mph - N/A   Clear
3:15 AM 21.2 °F 11.7 °F 15.8 °F 80% 29.86 in 10.0 mi North 8.1 mph - N/A   Clear
3:35 AM 21.2 °F 11.7 °F 14.0 °F 74% 29.86 in 10.0 mi North 8.1 mph - N/A   Clear
3:55 AM 19.4 °F 10.4 °F 12.2 °F 74% 29.85 in 10.0 mi North 6.9 mph - N/A   Clear
4:15 AM 19.4 °F 11.5 °F 14.0 °F 80% 29.83 in 10.0 mi North 5.8 mph - N/A   Clear
4:35 AM 19.4 °F 8.6 °F 14.0 °F 80% 29.82 in 10.0 mi North 9.2 mph - N/A   Clear
4:55 AM 19.4 °F 10.4 °F 12.2 °F 74% 29.82 in 10.0 mi North 6.9 mph - N/A   Clear
5:15 AM 19.4 °F 10.4 °F 14.0 °F 80% 29.81 in 10.0 mi North 6.9 mph - N/A   Clear
5:35 AM 19.4 °F 7.9 °F 12.2 °F 74% 29.81 in 10.0 mi NNE 10.4 mph - N/A   Clear
5:55 AM 19.4 °F 7.2 °F 14.0 °F 80% 29.81 in 10.0 mi North 11.5 mph - N/A   Clear
6:15 AM 19.4 °F 9.5 °F 12.2 °F 74% 29.80 in 10.0 mi North 8.1 mph - N/A   Clear
6:35 AM 19.4 °F 8.6 °F 12.2 °F 74% 29.81 in 10.0 mi North 9.2 mph - N/A   Clear
6:55 AM 19.4 °F 7.9 °F 14.0 °F 80% 29.81 in 10.0 mi North 10.4 mph - N/A   Partly Cloudy
7:55 AM 21.2 °F 11.7 °F 15.8 °F 80% 29.80 in 10.0 mi North 8.1 mph - N/A   Scattered Clouds
8:15 AM 21.2 °F 12.6 °F 15.8 °F 80% 29.80 in 10.0 mi North 6.9 mph - N/A   Scattered Clouds
8:35 AM 23.0 °F 13.1 °F 15.8 °F 74% 29.80 in 10.0 mi North 9.2 mph - N/A   Clear
8:55 AM 26.6 °F 17.5 °F 17.6 °F 69% 29.81 in 10.0 mi North 9.2 mph - N/A   Mostly Cloudy
9:15 AM 26.6 °F 16.8 °F 17.6 °F 69% 29.81 in 10.0 mi North 10.4 mph - N/A   Overcast
9:55 AM 28.4 °F 19.1 °F 17.6 °F 64% 29.82 in 10.0 mi North 10.4 mph - N/A   Overcast
10:15 AM 28.4 °F 21.2 °F 17.6 °F 64% 29.82 in 10.0 mi North 6.9 mph - N/A   Overcast
10:35 AM 30.2 °F 24.3 °F 17.6 °F 60% 29.82 in 10.0 mi North 5.8 mph - N/A   Overcast
11:15 AM 30.2 °F 24.3 °F 17.6 °F 60% 29.79 in 10.0 mi North 5.8 mph - N/A   Overcast
11:35 AM 32.0 °F 26.4 °F 17.6 °F 55% 29.79 in 10.0 mi NNE 5.8 mph - N/A   Overcast
11:55 AM 33.8 °F 28.6 °F 17.6 °F 52% 29.78 in 10.0 mi North 5.8 mph - N/A   Overcast
12:15 PM 33.8 °F 27.7 °F 17.6 °F 52% 29.76 in 10.0 mi NNE 6.9 mph - N/A   Overcast
12:35 PM 33.8 °F 25.3 °F 17.6 °F 52% 29.74 in 10.0 mi North 11.5 mph - N/A   Overcast
12:55 PM 33.8 °F 26.4 °F 17.6 °F 52% 29.74 in 10.0 mi NNE 9.2 mph - N/A   Scattered Clouds
1:15 PM 33.8 °F 26.4 °F 15.8 °F 48% 29.74 in 10.0 mi North 9.2 mph - N/A   Mostly Cloudy
1:35 PM 33.8 °F 26.4 °F 17.6 °F 52% 29.74 in 10.0 mi North 9.2 mph - N/A   Mostly Cloudy
1:55 PM 35.6 °F 28.6 °F 17.6 °F 48% 29.73 in 10.0 mi NE 9.2 mph - N/A   Mostly Cloudy
2:15 PM 35.6 °F 29.9 °F 15.8 °F 44% 29.73 in 10.0 mi NE 6.9 mph - N/A   Overcast
2:35 PM 35.6 °F 28.0 °F 15.8 °F 44% 29.72 in 10.0 mi NE 10.4 mph - N/A   Mostly Cloudy
2:55 PM 35.6 °F 29.2 °F 15.8 °F 44% 29.73 in 10.0 mi NE 8.1 mph - N/A   Mostly Cloudy
3:15 PM 33.8 °F 24.8 °F 15.8 °F 48% 29.73 in 10.0 mi ENE 12.7 mph - N/A   Overcast
3:35 PM 33.8 °F 25.8 °F 17.6 °F 52% 29.74 in 10.0 mi East 10.4 mph - N/A   Overcast
4:15 PM 32.0 °F 23.0 °F 17.6 °F 55% 29.74 in 10.0 mi East 11.5 mph - N/A   Overcast
4:35 PM 30.2 °F 20.2 °F 17.6 °F 60% 29.75 in 10.0 mi East 12.7 mph - N/A   Overcast
5:15 PM 30.2 °F 19.8 °F 19.4 °F 64% 29.76 in 10.0 mi East 13.8 mph - N/A   Overcast
5:35 PM 28.4 °F 15.8 °F 19.4 °F 69% 29.77 in 10.0 mi East 18.4 mph - N/A   Overcast
5:55 PM 28.4 °F 17.0 °F 19.4 °F 69% 29.78 in 10.0 mi East 15.0 mph - N/A   Overcast
6:15 PM 26.6 °F 16.2 °F 21.2 °F 80% 29.79 in 10.0 mi ENE 11.5 mph - N/A   Overcast
6:35 PM 26.6 °F 15.7 °F 21.2 °F 80% 29.80 in 10.0 mi ENE 12.7 mph - N/A   Overcast
6:55 PM 26.6 °F 15.2 °F 21.2 °F 80% 29.81 in 3.0 mi East 13.8 mph - N/A   Overcast
7:15 PM 24.8 °F 11.9 °F 21.2 °F 86% 29.82 in 3.0 mi East 16.1 mph - N/A   Mostly Cloudy
7:35 PM 24.8 °F 13.4 °F 19.4 °F 80% 29.83 in 1.8 mi East 12.7 mph - N/A   Overcast
8:15 PM 23.0 °F 10.6 °F 21.2 °F 93% 29.85 in 2.0 mi ENE 13.8 mph - N/A   Overcast
8:35 PM 21.2 °F 9.5 °F 17.6 °F 86% 29.86 in 5.0 mi ENE 11.5 mph - N/A   Overcast
9:15 PM 19.4 °F 7.2 °F 17.6 °F 93% 29.88 in 1.8 mi ENE 11.5 mph - N/A   Overcast
9:35 PM 19.4 °F 6.6 °F 15.8 °F 86% 29.89 in 2.0 mi ENE 12.7 mph - N/A   Overcast
9:55 PM 19.4 °F 8.6 °F 15.8 °F 86% 29.90 in 3.0 mi ENE 9.2 mph - N/A   Overcast
10:15 PM 19.4 °F 10.4 °F 15.8 °F 86% 29.91 in 4.0 mi NE 6.9 mph - N/A   Overcast
10:35 PM 19.4 °F 8.6 °F 15.8 °F 86% 29.92 in 2.5 mi NE 9.2 mph - N/A   Overcast
10:55 PM 17.6 °F 6.4 °F 15.8 °F 93% 29.94 in 3.0 mi NE 9.2 mph - N/A   Overcast
11:15 PM 17.6 °F 5.0 °F 14.0 °F 86% 29.95 in 7.0 mi ENE 11.5 mph - N/A   Overcast
11:35 PM 17.6 °F 6.4 °F 12.2 °F 79% 29.96 in 5.0 mi ENE 9.2 mph - N/A   Overcast
11:55 PM 15.8 °F 3.4 °F 12.2 °F 86% 29.96 in 2.5 mi NE 10.4 mph - N/A   Overcast